When you browse on this site, cookies collect data to enhance your experience and personalize the content and advertising you see.
Visit our Privacy Policy to learn more. By continuing to use the site, you agree to this use of cookies and data.
  • In Portugal
  • List of Countries
  • For 7 days
  • Water Temperature
  • Weather Map
  • Weather Widgets
  • user-avatar
    Login

    Hourly Weather Fatima

    Today, 4 April, Saturday

    Time Temperature Precipitation Wind Pressure Humidity
    00:00 +10°C° 0 mm 1 mps 731 mmHg 86%
    01:00 +9°C° 0 mm 2 mps 730 mmHg 86%
    02:00 +8°C° 0 mm 2 mps 730 mmHg 87%
    03:00 +8°C° 0 mm 2 mps 730 mmHg 87%
    04:00 +8°C° 0 mm 2 mps 729 mmHg 87%
    05:00 +8°C° 0 mm 3 mps 729 mmHg 84%
    06:00 +10°C° 0 mm 3 mps 729 mmHg 78%
    07:00 +11°C° 0 mm 4 mps 730 mmHg 71%
    08:00 +12°C° 0 mm 5 mps 730 mmHg 64%
    09:00 +14°C° 0 mm 5 mps 730 mmHg 60%
    10:00 +15°C° 0 mm 6 mps 730 mmHg 55%
    11:00 +16°C° 0 mm 6 mps 730 mmHg 51%
    12:00 +16°C° 0 mm 6 mps 730 mmHg 53%
    13:00 +16°C° 0 mm 6 mps 730 mmHg 55%
    14:00 +17°C° 0 mm 6 mps 729 mmHg 58%
    15:00 +16°C° 0 mm 6 mps 729 mmHg 62%
    16:00 +15°C° 0 mm 6 mps 729 mmHg 67%
    17:00 +14°C° 0 mm 5 mps 729 mmHg 72%
    18:00 +13°C° 0 mm 5 mps 729 mmHg 74%
    19:00 +13°C° 0 mm 5 mps 730 mmHg 76%
    20:00 +13°C° 0 mm 5 mps 730 mmHg 78%
    21:00 +12°C° 0.1 mm 5 mps 730 mmHg 80%
    22:00 +12°C° 0.1 mm 5 mps 730 mmHg 83%
    23:00 +12°C° 0.1 mm 5 mps 730 mmHg 85%

    Tomorrow, 5 April, Sunday

    Time Temperature Precipitation Wind Pressure Humidity
    00:00 +12°C° 0.1 mm 5 mps 730 mmHg 87%
    01:00 +12°C° 0.1 mm 5 mps 730 mmHg 89%
    02:00 +10°C° 0.1 mm 5 mps 729 mmHg 91%
    03:00 +10°C° 0.1 mm 5 mps 730 mmHg 91%
    04:00 +10°C° 0.1 mm 5 mps 730 mmHg 91%
    05:00 +10°C° 0.1 mm 5 mps 730 mmHg 91%
    06:00 +12°C° 0 mm 5 mps 730 mmHg 90%
    07:00 +13°C° 0 mm 5 mps 731 mmHg 88%
    08:00 +13°C° 0 mm 5 mps 731 mmHg 86%
    09:00 +14°C° 1 mm 5 mps 731 mmHg 88%
    10:00 +14°C° 1 mm 4 mps 731 mmHg 89%
    11:00 +14°C° 1 mm 4 mps 731 mmHg 90%
    12:00 +14°C° 2.2 mm 4 mps 731 mmHg 92%
    13:00 +14°C° 2.2 mm 4 mps 730 mmHg 94%
    14:00 +14°C° 2.2 mm 5 mps 730 mmHg 96%
    15:00 +14°C° 1.4 mm 4 mps 730 mmHg 95%
    16:00 +14°C° 1.4 mm 3 mps 730 mmHg 94%
    17:00 +14°C° 1.4 mm 3 mps 731 mmHg 94%
    18:00 +14°C° 0.1 mm 2 mps 731 mmHg 95%
    19:00 +13°C° 0.1 mm 2 mps 732 mmHg 96%
    20:00 +12°C° 0.1 mm 1 mps 733 mmHg 98%
    21:00 +12°C° 0 mm 1 mps 733 mmHg 98%
    22:00 +12°C° 0 mm 1 mps 733 mmHg 98%
    23:00 +12°C° 0 mm 1 mps 733 mmHg 98%

    Day after tomorrow, 6 April, Monday

    Time Temperature Precipitation Wind Pressure Humidity
    00:00 +11°C° 0 mm 1 mps 734 mmHg 98%
    01:00 +11°C° 0 mm 1 mps 734 mmHg 98%
    02:00 +10°C° 0 mm 0 mps 734 mmHg 98%
    03:00 +10°C° 0 mm 0 mps 734 mmHg 98%
    04:00 +10°C° 0 mm 0 mps 735 mmHg 97%
    05:00 +10°C° 0 mm 0 mps 735 mmHg 97%
    06:00 +11°C° 0 mm 0 mps 735 mmHg 92%
    07:00 +13°C° 0 mm 0 mps 736 mmHg 86%
    08:00 +14°C° 0 mm 0 mps 737 mmHg 81%
    09:00 +16°C° 0 mm 0 mps 737 mmHg 72%
    10:00 +20°C° 0 mm 1 mps 737 mmHg 62%
    11:00 +21°C° 0 mm 1 mps 738 mmHg 53%
    12:00 +21°C° 0.1 mm 1 mps 738 mmHg 54%
    13:00 +20°C° 0.1 mm 2 mps 738 mmHg 56%
    14:00 +19°C° 0.1 mm 2 mps 738 mmHg 57%
    15:00 +18°C° 0.1 mm 2 mps 738 mmHg 61%
    16:00 +17°C° 0.1 mm 2 mps 738 mmHg 66%
    17:00 +17°C° 0.1 mm 2 mps 737 mmHg 70%
    18:00 +15°C° 0 mm 2 mps 738 mmHg 74%
    19:00 +13°C° 0 mm 2 mps 738 mmHg 78%
    20:00 +11°C° 0 mm 1 mps 739 mmHg 83%
    21:00 +11°C° 0 mm 1 mps 739 mmHg 82%
    22:00 +11°C° 0 mm 1 mps 738 mmHg 81%
    23:00 +10°C° 0 mm 0 mps 738 mmHg 81%

    7 April, Tuesday

    Time Temperature Precipitation Wind Pressure Humidity
    00:00 +9°C° 0 mm 0 mps 738 mmHg 80%
    01:00 +9°C° 0 mm 0 mps 738 mmHg 80%
    02:00 +9°C° 0 mm 0 mps 738 mmHg 80%
    03:00 +9°C° 0 mm 0 mps 738 mmHg 81%
    04:00 +9°C° 0 mm 0 mps 738 mmHg 82%
    05:00 +10°C° 0 mm 1 mps 738 mmHg 83%
    06:00 +12°C° 0 mm 1 mps 738 mmHg 77%
    07:00 +14°C° 0 mm 1 mps 738 mmHg 72%
    08:00 +16°C° 0 mm 1 mps 739 mmHg 66%
    09:00 +19°C° 0 mm 1 mps 739 mmHg 62%
    10:00 +20°C° 0 mm 1 mps 739 mmHg 57%
    11:00 +22°C° 0 mm 1 mps 739 mmHg 52%
    12:00 +22°C° 0 mm 1 mps 739 mmHg 51%
    13:00 +23°C° 0 mm 1 mps 738 mmHg 50%
    14:00 +23°C° 0 mm 1 mps 738 mmHg 49%
    15:00 +22°C° 0 mm 1 mps 738 mmHg 54%
    16:00 +21°C° 0 mm 1 mps 738 mmHg 60%
    17:00 +20°C° 0 mm 1 mps 738 mmHg 65%
    18:00 +18°C° 0 mm 1 mps 738 mmHg 70%
    19:00 +15°C° 0 mm 1 mps 738 mmHg 75%
    20:00 +13°C° 0 mm 1 mps 738 mmHg 80%
    21:00 +13°C° 0 mm 1 mps 738 mmHg 80%
    22:00 +13°C° 0 mm 1 mps 738 mmHg 80%
    23:00 +13°C° 0 mm 1 mps 738 mmHg 80%

    8 April, Wednesday

    Time Temperature Precipitation Wind Pressure Humidity
    00:00 +13°C° 0 mm 1 mps 738 mmHg 80%
    01:00 +13°C° 0 mm 1 mps 738 mmHg 80%
    02:00 +13°C° 0 mm 1 mps 737 mmHg 80%
    03:00 +13°C° 0 mm 1 mps 737 mmHg 80%
    04:00 +13°C° 0 mm 1 mps 737 mmHg 80%
    05:00 +14°C° 0 mm 1 mps 737 mmHg 80%
    06:00 +14°C° 0 mm 1 mps 738 mmHg 78%
    07:00 +15°C° 0 mm 1 mps 738 mmHg 75%
    08:00 +16°C° 0 mm 1 mps 738 mmHg 73%
    09:00 +16°C° 0 mm 1 mps 738 mmHg 73%
    10:00 +18°C° 0 mm 1 mps 738 mmHg 74%
    11:00 +18°C° 0 mm 1 mps 738 mmHg 74%
    12:00 +18°C° 0.1 mm 1 mps 738 mmHg 77%
    13:00 +18°C° 0.1 mm 1 mps 738 mmHg 80%
    14:00 +16°C° 0.1 mm 1 mps 737 mmHg 82%
    15:00 +16°C° 0 mm 1 mps 737 mmHg 83%
    16:00 +16°C° 0 mm 1 mps 737 mmHg 84%
    17:00 +15°C° 0 mm 2 mps 737 mmHg 86%
    18:00 +15°C° 0 mm 1 mps 737 mmHg 85%
    19:00 +15°C° 0 mm 1 mps 737 mmHg 85%
    20:00 +15°C° 0 mm 1 mps 738 mmHg 84%
    21:00 +14°C° 0 mm 1 mps 738 mmHg 85%
    22:00 +14°C° 0 mm 1 mps 737 mmHg 85%
    23:00 +13°C° 0 mm 0 mps 737 mmHg 86%

    9 April, Thursday

    Time Temperature Precipitation Wind Pressure Humidity
    00:00 +13°C° 0 mm 0 mps 737 mmHg 85%
    01:00 +13°C° 0 mm 0 mps 737 mmHg 85%
    02:00 +13°C° 0 mm 0 mps 736 mmHg 84%
    03:00 +14°C° 0 mm 1 mps 736 mmHg 85%
    04:00 +14°C° 0 mm 1 mps 736 mmHg 86%
    05:00 +14°C° 0 mm 1 mps 736 mmHg 87%
    06:00 +14°C° 0 mm 1 mps 736 mmHg 86%
    07:00 +15°C° 0 mm 1 mps 737 mmHg 86%
    08:00 +14°C° 0 mm 0 mps 737 mmHg 85%
    09:00 +15°C° 0 mm 0 mps 737 mmHg 83%
    10:00 +15°C° 0 mm 0 mps 737 mmHg 81%
    11:00 +16°C° 0 mm 0 mps 737 mmHg 79%
    12:00 +16°C° 0.1 mm 0 mps 737 mmHg 79%
    13:00 +18°C° 0.1 mm 1 mps 737 mmHg 80%
    14:00 +18°C° 0.1 mm 1 mps 737 mmHg 80%
    15:00 +18°C° 0.1 mm 1 mps 737 mmHg 82%
    16:00 +16°C° 0.1 mm 1 mps 737 mmHg 83%
    17:00 +16°C° 0.1 mm 1 mps 736 mmHg 85%
    18:00 +15°C° 0 mm 1 mps 737 mmHg 86%
    19:00 +15°C° 0 mm 1 mps 737 mmHg 88%
    20:00 +14°C° 0 mm 1 mps 737 mmHg 90%
    21:00 +14°C° 0 mm 1 mps 737 mmHg 90%
    22:00 +14°C° 0 mm 1 mps 737 mmHg 91%
    23:00 +13°C° 0 mm 1 mps 737 mmHg 92%
    Show more